Location: Spruce Knob
(38.6995°N, 79.5330°W)
Time: 19:50:48
(UTC-04:00)

A-11 Canister half - Pass Details

Date: 31 January 2022
Orbit: 1513 x 1686 km, 47.2° (Epoch: 26 May)

Event Time Altitude Azimuth Distance (km) Brightness Sun altitude
Rises 13:45:01 0° 208° (SSW) 4,856 12.7 31.5°
Reaches altitude 10° 13:48:23 10° 202° (SSW) 3,848 12.7 31.3°
Maximum altitude 13:57:24 44° 135° (SE) 2,094 10.3 30.6°
Drops below altitude 10° 14:06:08 10° 67° (ENE) 3,735 10.7 29.9°
Sets 14:09:19 0° 61° (ENE) 4,701 11.1 29.6°
